SCP
0 0 0 0 0 0 0 0 0 0 0 0 0 0 0 0 0 0 0 0 0 0 0 0 0 0 0 0 0 0 0 0 0 0 0 0 0 0 0 0 0 0 0
0 0 0 0 0 0 0 0 0 0 0 0 0 0 0 0 0 0 0 0 0 0 0 0 0 0 0 0 0 0 0 0 0 0 0 0 0 0 0 0 0 0 0
0 0 0 0 0 0 0 0 0 0 0 0 0 0 0 0 0 0 0 0 0 0 0 0 0 0 0 0 0 0 0 0 0 0 0 0 0 0 0 0 0 0 0
0 0 0 0 0 0 0 0 0 0 0 0 0 0 0 0 0 0 0 0 0 0 0 0 0 0 0 0 0 0 0 0 0 0 0 0 0 0 0 0 0 0 0
0 0 0 0 0 0 0 0 0 0 0 0 0 0 0 0 0 0 0 0 0 0 0 0 0 0 0 0 0 0 0 0 0 0 0 0 0 0 0 0 0 0 0
0 0 0 0 0 0 0 0 0 0 0 0 0 0 0 0 0 0 0 0 0 0 0 0 0 0 0 0 0 0 0 0 0 0 0 0 0 0 0 0 0 0 0
0 0 0 0 0 0 0 0 0 0 0 0 0 0 0 0 0 0 0 0 0 0 0 0 0 0 0 0 0 0 0 0 0 0 0 0 0 0 0 0 0 0 0
0 0 0 0 0 0 0 0 0 0 0 0 0 0 0 0 0 0 0 0 0 0 0 0 0 0 0 0 0 0 0 0 0 0 0 0 0 0 0 0 0 0 0
0 0 0 0 0 0 0 0 0 0 0 0 0 0 0 0 0 0 0 0 0 0 0 0 0 0 0 0 0 0 0 0 0 0 0 0 0 0 0 0 0 0 0
0 0 0 0 0 0 0 0 0 0 0 0 0 0 0 0 0 0 0 0 0 0 0 0 0 0 0 0 0 0 0 0 0 0 0 0 0 0 0 0 0 0 0
0 0 0 0 0 0 0 0 0 0 0 0 0 0 0 0 0 0 0 0 0 0 0 0 0 0 0 0 0 0 0 0 0 0 0 0 0 0 0 0 0 0 0
0 0 0 0 0 0 0 0 0 0 0 0 0 0 0 0 0 0 0 0 0 0 0 0 0 0 0 0 0 0 0 0 0 0 0 0 0 0 0 0 0 0 0
0 0 0 0 0 0 0 0 0 0 0 0 0 0 0 0 0 0 0 0 0 0 0 0 0 0 0 0 0 0 0 0 0 0 0 0 0 0 0 0 0 0 0
0 0 0 0 0 0 0 0 0 0 0 0 0 0 0 0 0 0 0 0 0 0 0 0 0 0 0 0 0 0 0 0 0 0 0 0 0 0 0 0 0 0 0
0 0 0 0 0 0 0 0 0 0 0 0 0 0 0 0 0 0 0 0 0 0 0 0 0 0 0 0 0 0 0 0 0 0 0 0 0 0 0 0 0 0 0
0 0 0 0 0 0 0 0 0 0 0 0 0 0 0 0 0 0 0 0 0 0 0 0 0 0 0 0 0 0 0 0 0 0 0 0 0 0 0 0 0 0 0
0 0 0 0 0 0 0 0 0 0 0 0 0 0 0 0 0 0 0 0 0 0 0 0 0 0 0 0 0 0 0 0 0 0 0 0 0 0 0 0 0 0 0
0 0 0 0 0 0 0 0 0 0 0 0 0 0 0 0 0 0 0 0 0 0 0 0 0 0 0 0 0 0 0 0 0 0 0 0 0 0 0 0 0 0 0
0 0 0 0 0 0 0 0 0 0 0 0 0 0 0 0 0 0 0 0 0 0 0 0 0 0 0 0 0 0 0 0 0 0 0 0 0 0 0 0 0 0 0
0 0 0 0 0 0 0 0 0 0 0 0 0 0 0 0 0 0 0 0 0 0 0 0 0 0 0 0 0 0 0 0 0 0 0 0 0 0 0 0 0 0 0
0 0 0 0 0 0 0 0 0 0 0 0 0 0 0 0 0 0 0 0 0 0 0 0 0 0 0 0 0 0 0 0 0 0 0 0 0 0 0 0 0 0 0
0 0 0 0 0 0 0 0 0 0 0 0 0 0 0 0 0 0 0 0 0 0 0 0 0 0 0 0 0 0 0 0 0 0 0 0 0 0 0 0 0 0 0
0 0 0 0 0 0 0 0 0 0 0 0 0 0 0 0 0 0 0 0 0 0 0 0 0 0 0 0 0 0 0 0 0 0 0 0 0 0 0 0 0 0 0
0 0 0 0 0 0 0 0 0 0 0 0 0 0 0 0 0 0 0 0 0 0 0 0 0 0 0 0 0 0 0 0 0 0 0 0 0 0 0 0 0 0 0
0 0 0 0 0 0 0 0 0 0 0 0 0 0 0 0 0 0 0 0 0 0 0 0 0 0 0 0 0 0 0 0 0 0 0 0 0 0 0 0 0 0 0
0 0 0 0 0 0 0 0 0 0 0 0 0 0 0 0 0 0 0 0 0 0 0 0 0 0 0 0 0 0 0 0 0 0 0 0 0 0 0 0 0 0 0
Wind_Speed_500mb
40 38 36 33 32 30 26 24 22 20 15 11 9 8 12 17 21 24 27 29 31 31 32 33 33 33 34 35 34 34 32 28 27 26 24 22 20 22 27 25 25 25 27
38 37 35 36 34 29 27 25 23 21 19 15 11 10 14 19 23 27 29 30 30 31 32 33 33 34 35 35 35 33 30 25 21 22 19 17 22 26 23 24 26 28 28
38 38 40 38 34 31 29 27 26 25 22 16 13 14 18 22 25 27 29 29 29 31 32 33 33 32 32 33 32 31 27 22 17 14 18 23 23 22 21 24 26 28 28
41 42 42 39 35 33 32 31 32 29 24 19 15 15 20 24 26 29 29 30 31 32 33 32 31 31 30 30 30 27 23 17 16 17 18 19 20 21 23 23 23 26 27
46 47 44 40 39 38 35 35 35 31 27 20 14 17 22 26 28 30 32 32 30 31 31 32 31 29 30 28 25 20 16 18 17 19 20 19 20 22 25 28 29 31 31
50 48 45 44 42 41 40 39 38 35 30 19 13 18 25 28 31 33 35 33 32 32 30 32 31 31 29 26 19 21 15 18 19 20 20 20 21 23 26 29 33 35 33
55 51 46 45 45 42 42 42 41 37 32 22 17 20 26 32 36 36 37 33 31 31 29 31 32 31 29 27 22 18 18 17 21 21 20 21 22 24 28 30 32 35 38
56 51 47 47 44 44 46 44 44 43 36 26 23 25 29 36 40 40 42 36 31 30 28 31 30 30 30 26 23 22 20 19 19 20 20 21 24 26 29 31 33 35 39
57 49 46 44 42 47 50 47 48 48 41 34 29 31 35 41 44 45 46 37 33 31 30 29 29 30 30 28 26 25 22 22 21 20 21 23 28 30 29 34 35 38 41
56 46 42 40 43 48 50 50 52 51 45 40 37 39 42 46 49 49 47 42 37 34 33 31 31 29 31 31 27 27 24 23 23 22 24 26 28 31 33 34 37 38 39
51 46 45 45 46 46 51 53 53 54 50 47 46 46 47 50 52 52 51 47 42 37 36 34 31 31 33 34 31 29 26 26 24 24 25 28 29 30 32 35 37 38 39
49 50 50 48 51 52 54 55 56 57 57 55 56 55 53 54 54 54 52 54 48 42 39 32 32 35 36 34 31 28 28 27 27 26 27 28 30 31 33 35 38 37 38
47 49 50 51 56 54 52 53 56 59 61 62 64 60 58 56 55 57 56 55 54 49 37 35 36 38 43 37 31 33 29 29 29 29 28 29 30 32 33 36 38 39 39
44 47 44 41 40 41 42 46 52 57 64 66 63 64 60 58 59 59 58 57 55 57 46 37 39 41 44 45 36 31 30 30 30 30 30 31 31 33 35 36 38 40 39
28 32 33 34 36 38 41 45 52 55 57 59 61 61 63 65 60 54 55 56 58 58 53 50 47 48 50 52 45 38 34 34 33 32 33 32 33 35 36 38 40 42 42
33 38 41 43 44 45 47 50 52 54 58 60 62 66 66 66 64 60 59 55 55 59 63 65 60 55 51 50 49 44 38 37 34 36 36 34 35 37 37 39 40 42 44
46 48 52 54 55 54 56 57 58 55 58 61 64 69 69 67 61 58 55 53 54 57 68 70 66 61 54 50 48 47 41 37 41 40 37 36 37 38 39 38 41 42 43
53 54 57 58 58 57 57 58 58 59 60 64 64 67 66 59 57 47 47 47 51 59 74 70 65 61 55 50 49 50 44 45 45 41 40 38 39 41 40 38 41 42 44
46 49 55 59 60 60 60 60 61 63 65 65 63 61 53 52 47 51 41 51 60 66 72 68 58 54 52 51 51 51 50 50 48 45 42 40 40 43 40 38 42 42 44
37 41 46 52 56 56 55 55 57 57 59 59 56 50 44 41 46 55 56 53 61 67 68 63 57 51 47 51 53 54 54 53 50 46 41 41 42 44 40 39 41 43 44
32 34 37 38 41 44 48 50 49 49 50 51 49 41 38 43 45 53 59 60 60 63 63 57 51 48 46 49 49 53 54 54 49 45 44 42 42 43 41 42 41 42 44
31 32 33 34 37 38 39 41 43 44 45 46 45 39 36 41 45 49 56 59 60 65 60 55 51 47 47 48 50 52 53 51 47 45 44 43 43 42 43 42 41 42 44
32 33 35 35 37 38 38 39 41 43 45 47 46 44 39 43 46 52 55 54 56 59 58 57 53 50 51 51 52 52 53 49 42 42 45 45 44 42 42 42 42 41 44
37 36 36 36 38 40 42 43 44 47 50 50 47 46 44 43 46 51 53 53 54 54 54 55 55 53 52 54 54 53 51 48 47 47 47 46 43 42 42 42 39 40 43
42 41 41 41 40 40 43 45 48 49 49 50 49 47 46 45 48 50 50 53 55 56 57 55 56 56 56 57 57 55 52 50 50 49 49 46 45 43 43 41 39 40 42
45 46 46 47 47 46 47 47 48 48 50 50 51 49 48 49 49 50 48 52 55 55 56 58 57 57 57 58 58 58 56 55 53 51 49 47 47 44 42 40 40 40 41
Wind_Direction_500mb
210 210 207 202 195 192 199 212 219 225 228 229 240 279 319 331 328 327 329 331 327 323 323 323 321 320 319 317 317 316 313 308 295 290 281 279 282 298 300 305 310 307 309
207 205 199 194 193 200 211 222 229 229 229 233 256 302 319 323 327 329 328 321 319 324 325 324 324 323 322 320 317 316 317 315 305 291 281 274 291 288 300 308 312 315 315
203 199 195 193 200 210 222 228 231 231 233 239 266 298 318 326 327 321 314 317 322 324 324 322 320 319 319 318 319 319 315 310 306 296 291 280 282 292 305 312 317 316 315
201 197 196 201 210 221 229 232 231 231 231 243 272 309 324 322 313 310 314 317 319 321 319 317 319 320 317 316 313 311 304 305 312 303 293 285 289 300 309 316 314 315 316
201 199 202 210 219 228 234 237 234 233 235 248 288 318 314 306 306 311 308 309 313 312 314 316 316 315 314 315 311 305 302 304 303 299 296 293 297 311 316 323 329 327 325
203 204 211 221 230 236 239 238 236 235 236 249 280 301 304 305 307 305 305 306 308 311 312 314 312 311 312 314 304 297 289 292 294 298 295 300 306 314 321 326 328 328 334
206 212 221 231 237 241 243 241 239 239 240 246 267 293 303 305 300 300 298 300 301 304 307 309 304 306 307 307 300 283 277 282 294 293 294 301 308 317 321 325 327 329 328
212 220 228 237 242 245 246 246 243 241 242 245 262 283 296 294 295 296 294 293 293 294 299 301 295 298 298 295 285 272 275 287 288 288 292 301 308 316 320 322 326 330 328
219 223 233 243 251 252 254 253 247 245 243 248 259 274 285 288 290 291 292 289 286 285 289 289 288 293 289 282 269 268 276 285 285 285 293 301 307 315 318 322 328 327 327
218 226 239 249 258 261 262 259 253 249 245 246 256 268 276 284 287 288 289 287 281 279 281 279 285 284 277 274 259 265 273 277 280 287 295 301 305 310 316 322 324 326 329
228 236 247 255 262 269 266 261 257 252 247 251 260 267 274 279 283 284 286 284 277 271 273 273 278 274 268 265 257 262 263 270 275 280 289 294 298 305 312 317 320 324 326
243 250 257 265 268 273 269 259 256 252 249 254 261 266 271 276 281 281 282 283 274 267 270 266 267 264 263 258 253 256 257 263 272 278 283 288 296 302 309 313 318 322 323
255 263 267 267 270 270 262 258 255 253 254 257 262 269 274 277 279 279 278 272 276 272 261 260 257 255 262 256 249 252 255 259 269 275 279 285 293 299 304 310 315 319 321
262 268 271 274 273 271 267 261 256 255 257 260 265 271 277 277 279 276 272 265 261 269 266 259 259 254 252 257 250 245 248 258 268 273 279 283 289 295 300 307 313 317 319
268 274 277 281 284 279 271 265 262 262 264 266 269 272 275 278 286 281 272 264 258 260 265 260 255 252 249 251 254 251 249 258 266 272 277 281 288 292 297 304 311 316 319
282 286 286 283 278 272 267 265 265 265 264 267 272 275 279 283 282 276 264 256 252 249 252 255 255 255 255 254 255 255 251 258 266 270 274 279 284 289 293 300 308 315 318
278 275 274 273 273 273 272 271 271 270 271 271 272 277 283 283 279 273 263 253 249 246 252 253 253 254 255 253 252 251 252 258 260 269 273 275 281 285 289 296 303 311 314
279 278 276 273 271 270 269 271 272 272 271 273 276 280 280 280 279 272 259 245 237 236 252 253 253 255 254 252 250 249 251 254 260 266 270 274 280 283 287 293 298 306 311
281 280 277 274 272 271 269 270 272 273 275 276 277 275 278 278 268 265 260 236 240 245 251 257 258 256 250 247 246 247 248 252 259 263 269 274 277 281 286 290 294 302 309
285 283 280 276 272 269 270 272 273 275 276 277 280 284 282 271 254 250 259 247 245 251 254 260 262 260 254 249 247 246 248 250 255 263 268 272 276 280 287 288 292 299 306
300 293 286 283 282 276 272 271 272 272 275 277 279 281 281 272 262 255 258 256 255 259 263 264 264 259 253 247 246 247 248 250 253 260 266 272 276 281 286 286 292 297 305
303 299 295 292 285 279 276 277 279 278 278 281 287 288 278 267 261 256 256 258 259 264 269 267 264 257 252 251 253 254 254 250 254 259 266 272 276 281 283 286 290 295 301
311 309 303 298 290 286 284 283 281 283 286 287 286 282 272 265 261 258 261 263 264 264 265 265 263 255 250 250 253 253 249 250 258 260 262 269 275 279 281 284 287 292 298
308 311 308 301 294 290 289 286 284 283 283 283 283 281 278 272 265 262 263 264 264 263 262 260 258 254 250 248 250 252 252 253 254 257 263 269 274 276 278 282 285 288 293
299 301 301 299 299 296 292 288 285 284 284 284 285 282 279 275 271 267 263 263 261 259 257 256 253 250 249 247 249 251 253 252 253 256 261 268 271 273 276 279 282 285 291
297 294 292 293 295 296 295 293 291 288 286 286 285 283 280 277 274 271 266 262 261 260 257 254 253 249 246 246 247 248 249 249 251 256 260 264 268 271 273 275 277 283 287
Wind_Speed_850mb
40 38 36 33 32 30 26 24 22 20 15 11 9 8 12 17 21 24 27 29 31 31 32 33 33 33 34 35 34 34 32 28 27 26 24 22 20 22 27 25 25 25 27
38 37 35 36 34 29 27 25 23 21 19 15 11 10 14 19 23 27 29 30 30 31 32 33 33 34 35 35 35 33 30 25 21 22 19 17 22 26 23 24 26 28 28
38 38 40 38 34 31 29 27 26 25 22 16 13 14 18 22 25 27 29 29 29 31 32 33 33 32 32 33 32 31 27 22 17 14 18 23 23 22 21 24 26 28 28
41 42 42 39 35 33 32 31 32 29 24 19 15 15 20 24 26 29 29 30 31 32 33 32 31 31 30 30 30 27 23 17 16 17 18 19 20 21 23 23 23 26 27
46 47 44 40 39 38 35 35 35 31 27 20 14 17 22 26 28 30 32 32 30 31 31 32 31 29 30 28 25 20 16 18 17 19 20 19 20 22 25 28 29 31 31
50 48 45 44 42 41 40 39 38 35 30 19 13 18 25 28 31 33 35 33 32 32 30 32 31 31 29 26 19 21 15 18 19 20 20 20 21 23 26 29 33 35 33
55 51 46 45 45 42 42 42 41 37 32 22 17 20 26 32 36 36 37 33 31 31 29 31 32 31 29 27 22 18 18 17 21 21 20 21 22 24 28 30 32 35 38
56 51 47 47 44 44 46 44 44 43 36 26 23 25 29 36 40 40 42 36 31 30 28 31 30 30 30 26 23 22 20 19 19 20 20 21 24 26 29 31 33 35 39
57 49 46 44 42 47 50 47 48 48 41 34 29 31 35 41 44 45 46 37 33 31 30 29 29 30 30 28 26 25 22 22 21 20 21 23 28 30 29 34 35 38 41
56 46 42 40 43 48 50 50 52 51 45 40 37 39 42 46 49 49 47 42 37 34 33 31 31 29 31 31 27 27 24 23 23 22 24 26 28 31 33 34 37 38 39
51 46 45 45 46 46 51 53 53 54 50 47 46 46 47 50 52 52 51 47 42 37 36 34 31 31 33 34 31 29 26 26 24 24 25 28 29 30 32 35 37 38 39
49 50 50 48 51 52 54 55 56 57 57 55 56 55 53 54 54 54 52 54 48 42 39 32 32 35 36 34 31 28 28 27 27 26 27 28 30 31 33 35 38 37 38
47 49 50 51 56 54 52 53 56 59 61 62 64 60 58 56 55 57 56 55 54 49 37 35 36 38 43 37 31 33 29 29 29 29 28 29 30 32 33 36 38 39 39
44 47 44 41 40 41 42 46 52 57 64 66 63 64 60 58 59 59 58 57 55 57 46 37 39 41 44 45 36 31 30 30 30 30 30 31 31 33 35 36 38 40 39
28 32 33 34 36 38 41 45 52 55 57 59 61 61 63 65 60 54 55 56 58 58 53 50 47 48 50 52 45 38 34 34 33 32 33 32 33 35 36 38 40 42 42
33 38 41 43 44 45 47 50 52 54 58 60 62 66 66 66 64 60 59 55 55 59 63 65 60 55 51 50 49 44 38 37 34 36 36 34 35 37 37 39 40 42 44
46 48 52 54 55 54 56 57 58 55 58 61 64 69 69 67 61 58 55 53 54 57 68 70 66 61 54 50 48 47 41 37 41 40 37 36 37 38 39 38 41 42 43
53 54 57 58 58 57 57 58 58 59 60 64 64 67 66 59 57 47 47 47 51 59 74 70 65 61 55 50 49 50 44 45 45 41 40 38 39 41 40 38 41 42 44
46 49 55 59 60 60 60 60 61 63 65 65 63 61 53 52 47 51 41 51 60 66 72 68 58 54 52 51 51 51 50 50 48 45 42 40 40 43 40 38 42 42 44
37 41 46 52 56 56 55 55 57 57 59 59 56 50 44 41 46 55 56 53 61 67 68 63 57 51 47 51 53 54 54 53 50 46 41 41 42 44 40 39 41 43 44
32 34 37 38 41 44 48 50 49 49 50 51 49 41 38 43 45 53 59 60 60 63 63 57 51 48 46 49 49 53 54 54 49 45 44 42 42 43 41 42 41 42 44
31 32 33 34 37 38 39 41 43 44 45 46 45 39 36 41 45 49 56 59 60 65 60 55 51 47 47 48 50 52 53 51 47 45 44 43 43 42 43 42 41 42 44
32 33 35 35 37 38 38 39 41 43 45 47 46 44 39 43 46 52 55 54 56 59 58 57 53 50 51 51 52 52 53 49 42 42 45 45 44 42 42 42 42 41 44
37 36 36 36 38 40 42 43 44 47 50 50 47 46 44 43 46 51 53 53 54 54 54 55 55 53 52 54 54 53 51 48 47 47 47 46 43 42 42 42 39 40 43
42 41 41 41 40 40 43 45 48 49 49 50 49 47 46 45 48 50 50 53 55 56 57 55 56 56 56 57 57 55 52 50 50 49 49 46 45 43 43 41 39 40 42
45 46 46 47 47 46 47 47 48 48 50 50 51 49 48 49 49 50 48 52 55 55 56 58 57 57 57 58 58 58 56 55 53 51 49 47 47 44 42 40 40 40 41
Wind_Direction_850mb
210 210 207 202 195 192 199 212 219 225 228 229 240 279 319 331 328 327 329 331 327 323 323 323 321 320 319 317 317 316 313 308 295 290 281 279 282 298 300 305 310 307 309
207 205 199 194 193 200 211 222 229 229 229 233 256 302 319 323 327 329 328 321 319 324 325 324 324 323 322 320 317 316 317 315 305 291 281 274 291 288 300 308 312 315 315
203 199 195 193 200 210 222 228 231 231 233 239 266 298 318 326 327 321 314 317 322 324 324 322 320 319 319 318 319 319 315 310 306 296 291 280 282 292 305 312 317 316 315
201 197 196 201 210 221 229 232 231 231 231 243 272 309 324 322 313 310 314 317 319 321 319 317 319 320 317 316 313 311 304 305 312 303 293 285 289 300 309 316 314 315 316
201 199 202 210 219 228 234 237 234 233 235 248 288 318 314 306 306 311 308 309 313 312 314 316 316 315 314 315 311 305 302 304 303 299 296 293 297 311 316 323 329 327 325
203 204 211 221 230 236 239 238 236 235 236 249 280 301 304 305 307 305 305 306 308 311 312 314 312 311 312 314 304 297 289 292 294 298 295 300 306 314 321 326 328 328 334
206 212 221 231 237 241 243 241 239 239 240 246 267 293 303 305 300 300 298 300 301 304 307 309 304 306 307 307 300 283 277 282 294 293 294 301 308 317 321 325 327 329 328
212 220 228 237 242 245 246 246 243 241 242 245 262 283 296 294 295 296 294 293 293 294 299 301 295 298 298 295 285 272 275 287 288 288 292 301 308 316 320 322 326 330 328
219 223 233 243 251 252 254 253 247 245 243 248 259 274 285 288 290 291 292 289 286 285 289 289 288 293 289 282 269 268 276 285 285 285 293 301 307 315 318 322 328 327 327
218 226 239 249 258 261 262 259 253 249 245 246 256 268 276 284 287 288 289 287 281 279 281 279 285 284 277 274 259 265 273 277 280 287 295 301 305 310 316 322 324 326 329
228 236 247 255 262 269 266 261 257 252 247 251 260 267 274 279 283 284 286 284 277 271 273 273 278 274 268 265 257 262 263 270 275 280 289 294 298 305 312 317 320 324 326
243 250 257 265 268 273 269 259 256 252 249 254 261 266 271 276 281 281 282 283 274 267 270 266 267 264 263 258 253 256 257 263 272 278 283 288 296 302 309 313 318 322 323
255 263 267 267 270 270 262 258 255 253 254 257 262 269 274 277 279 279 278 272 276 272 261 260 257 255 262 256 249 252 255 259 269 275 279 285 293 299 304 310 315 319 321
262 268 271 274 273 271 267 261 256 255 257 260 265 271 277 277 279 276 272 265 261 269 266 259 259 254 252 257 250 245 248 258 268 273 279 283 289 295 300 307 313 317 319
268 274 277 281 284 279 271 265 262 262 264 266 269 272 275 278 286 281 272 264 258 260 265 260 255 252 249 251 254 251 249 258 266 272 277 281 288 292 297 304 311 316 319
282 286 286 283 278 272 267 265 265 265 264 267 272 275 279 283 282 276 264 256 252 249 252 255 255 255 255 254 255 255 251 258 266 270 274 279 284 289 293 300 308 315 318
278 275 274 273 273 273 272 271 271 270 271 271 272 277 283 283 279 273 263 253 249 246 252 253 253 254 255 253 252 251 252 258 260 269 273 275 281 285 289 296 303 311 314
279 278 276 273 271 270 269 271 272 272 271 273 276 280 280 280 279 272 259 245 237 236 252 253 253 255 254 252 250 249 251 254 260 266 270 274 280 283 287 293 298 306 311
281 280 277 274 272 271 269 270 272 273 275 276 277 275 278 278 268 265 260 236 240 245 251 257 258 256 250 247 246 247 248 252 259 263 269 274 277 281 286 290 294 302 309
285 283 280 276 272 269 270 272 273 275 276 277 280 284 282 271 254 250 259 247 245 251 254 260 262 260 254 249 247 246 248 250 255 263 268 272 276 280 287 288 292 299 306
300 293 286 283 282 276 272 271 272 272 275 277 279 281 281 272 262 255 258 256 255 259 263 264 264 259 253 247 246 247 248 250 253 260 266 272 276 281 286 286 292 297 305
303 299 295 292 285 279 276 277 279 278 278 281 287 288 278 267 261 256 256 258 259 264 269 267 264 257 252 251 253 254 254 250 254 259 266 272 276 281 283 286 290 295 301
311 309 303 298 290 286 284 283 281 283 286 287 286 282 272 265 261 258 261 263 264 264 265 265 263 255 250 250 253 253 249 250 258 260 262 269 275 279 281 284 287 292 298
308 311 308 301 294 290 289 286 284 283 283 283 283 281 278 272 265 262 263 264 264 263 262 260 258 254 250 248 250 252 252 253 254 257 263 269 274 276 278 282 285 288 293
299 301 301 299 299 296 292 288 285 284 284 284 285 282 279 275 271 267 263 263 261 259 257 256 253 250 249 247 249 251 253 252 253 256 261 268 271 273 276 279 282 285 291
297 294 292 293 295 296 295 293 291 288 286 286 285 283 280 277 274 271 266 262 261 260 257 254 253 249 246 246 247 248 249 249 251 256 260 264 268 271 273 275 277 283 287